Location: Eaton
(41.3139°N, 82.0207°W)
Time: 08:20:57
(UTC+00:00)

deb Kosmos-397 - Visible Passes

Search period start: 29 January 2022 00:00
Search period end: 08 February 2022 00:00
Orbit: 536 x 1289 km, 65.7° (Epoch: 29 January)

Date Brightness Start Highest point End Pass type
(mag) Time Alt. Az. Time Alt. Az. Time Alt. Az.
03 Feb ? 00:57:15 10° N 00:57:18 10° N 00:57:18 10° N visible
04 Feb ? 01:03:07 10° N 01:03:53 14° N 01:03:53 14° N visible
05 Feb ? 01:09:08 10° NNW 01:10:35 19° N 01:10:35 19° N visible
06 Feb ? 01:15:15 10° NNW 01:17:23 28° NNW 01:17:23 28° NNW visible
06 Feb ? 23:37:19 10° NNE 23:39:30 13° NE 23:40:59 12° ENE visible
07 Feb ? 01:21:28 10° NNW 01:24:21 41° NNW 01:24:21 41° NNW visible
07 Feb ? 23:42:50 10° N 23:46:02 18° NE 23:48:10 15° ENE visible
